Regional Weather Roundup
Issued by NWS

Home | Current Version | Previous Version | Text Only | Print | Product List | Glossary On
Versions: 1 2 3 4 5 6 7 8 9 10 11 12 13 14 15 16 17 18 19 20 21 22 23 24 25 26 27 28 29 30 31 32 33 34 35 36 37 38 39 40 41 42 43 44 45 46 47
000
ASUS42 KTBW 030920
RWRFL
FLORIDA REGIONAL WEATHER ROUNDUP
NATIONAL WEATHER SERVICE TAMPA BAY RUSKIN FL
500 AM EDT THU SEP 03 2015

NOTE: "FAIR" INDICATES FEW OR NO CLOUDS BELOW 12,000 FEET WITH NO
SIGNIFICANT WEATHER AND/OR OBSTRUCTIONS TO VISIBILITY.


FLZ001>010-012>015-112-114-115-031000-
PANHANDLE FLORIDA

CITY           SKY/WX    TMP DP  RH WIND       PRES   REMARKS
PENSACOLA      MOCLDY    78  74  87 NW5       29.96F
MILTON NAS     MOCLDY    76  73  91 W5        29.96F
CRESTVIEW      MOCLDY    78  73  84 W5        29.97F
DUKE FIELD     FAIR      78  73  86 W2        29.95F
VALPARAISO     MOCLDY    78  74  86 NW2       29.95F
MARY ESTHER    MOCLDY    79  74  83 NW7       29.94F
PANAMA CITY    FAIR      77  74  90 CALM      29.95F
TYNDALL AFB    MOCLDY    81  76  84 NW7       29.96S
APALACHICOLA   PTCLDY    75  75 100 CALM      29.96S

STATION/POSITION SKY/WX   TEMP    WIND        PRES    WAVE   SWELL
                          AIR SEA DIR/SP/G            HT/PER HT/PER
                          (F)     (DEG/KT/KT) (MB)    (FT/S) (FT/S)
30.1N   87.6W              84 85  300/  4/  6 1013.9F   1
29.2N   88.2W              83 84  200/  4/  6 1014.9R   1/ 6
28.8N   86.0W              84 87  240/  6/  8 1014.8F   1
PANAMA CITY BEAC           84 86  280/ 13/ 15 1014.4F
CAPE SAN BLAS    NOT AVBL
TOWER C                    84     280/  9/ 10 1014.4F
28.5N   84.5W              84 85  290/  6/  8 1014.7R   1/ 8

$$
FLZ011-016>038-118-127-128-134-139-239-031000-
NORTH FLORIDA

CITY           SKY/WX    TMP DP  RH WIND       PRES   REMARKS
MARIANNA       CLOUDY    77  73  87 CALM      29.95S
TALLAHASSEE    CLEAR     77  73  87 CALM      29.95F
PERRY          CLEAR     76  74  92 CALM      29.96S
CROSS CITY       N/A     76  74  93 CALM      29.95S
LAKE CITY      FAIR      73  73 100 CALM      29.95F
GAINESVILLE    CLEAR     75  73  93 CALM      29.96S
MAYPORT NAS    PTCLDY    77  75  93 SW3       29.93F
JACKSONVILLE   MOCLDY    74  74 100 W3        29.93S
JAX NAS        PTCLDY    80  74  81 SW5       29.95R
JAX CRAIG      CLEAR     77  75  93 W3        29.93F
JAX CECIL      CLEAR     75  75 100 CALM      29.95S
FERNANDINA BEA FAIR      79  75  89 W9        29.92F
ST AUGUSTINE   PTCLDY    76  75  97 SW5       29.95S

STATION/POSITION SKY/WX   TEMP    WIND        PRES    WAVE   SWELL
                          AIR SEA DIR/SP/G            HT/PER HT/PER
                          (F)     (DEG/KT/KT) (MB)    (FT/S) (FT/S)
SHELL POINT                79     290/  5/  8   N/A
KEATON BEACH               84     290/ 10/ 14 1014.4R
CEDAR KEY                  83     300/  4/  6 1014.7S
FERNANDINA                 77 85  280/  6/  7 1013.2R
30.7N   81.3W                 84                N/A     2/10
MAYPORT                    78 85  250/  6/  7 1014.1F
31.4N   80.9W              79 84   80/ 10/ 12 1013.2F   2/ 9   2/ 9
ST AUGUSTINE               76 82  230/  3/  4 1014.8S

$$
FLZ040-043>046-052-053-057-058-063-144-031000-
INTERIOR CENTRAL FLORIDA

CITY           SKY/WX    TMP DP  RH WIND       PRES   REMARKS
OCALA          PTCLDY    73  72  94 CALM      29.97R
THE VILLAGES     N/A     75  75 100 CALM      29.87S
LEESBURG       CLEAR     77  75  93 CALM      29.97S
SANFORD        CLEAR     77  74  90 W3        29.96R
ORLANDO EXEC   CLEAR     79  76  90 W3        29.96S
ORLANDO INTL   MOCLDY    76  75  97 CALM      29.96S
WINTER HAVEN   CLEAR     77  76  96 W3        29.98R
LAKELAND       PTCLDY    75  73  94 CALM      29.98R
BARTOW         FAIR      75 N/A N/A CALM      29.98R
OKEECHOBEE       N/A     75  73  94 CALM      29.96S

$$
FLZ041-047-054-059-064-141-147-031000-
EAST CENTRAL FLORIDA

CITY           SKY/WX    TMP DP  RH WIND       PRES   REMARKS
DAYTONA BEACH  PTCLDY    75  74  96 CALM      29.96R
DELAND           N/A     77  73  88 CALM      29.97R
CAPE CANAVERAL CLEAR     79  75  86 SW3       29.94S
PATRICK AFB    CLEAR     81  77  89 SW5       29.95R
MELBOURNE      CLEAR     78  76  93 S3        29.95S
VERO BEACH     PTCLDY    79  75  87 CALM      29.96S
FT PIERCE      PTCLDY    76  74  93 CALM      29.96R
STUART           N/A     77  73  88 SW5       29.97S

STATION/POSITION SKY/WX   TEMP    WIND        PRES    WAVE   SWELL
                          AIR SEA DIR/SP/G            HT/PER HT/PER
                          (F)     (DEG/KT/KT) (MB)    (FT/S) (FT/S)
28.5N   80.2W              83 85  220/ 12/ 14 1014.2F
28.9N   78.5W              84 86  190/  6/  8 1014.5F
TRIDENT PIER               82 87  210/  6/  8 1014.6F
28.4N   80.5W                 85                N/A     2/11
27.5N   80.2W                 84                N/A     1/10

$$
FLZ050-056-061-142-242-148-248-149-249-151-251-155-255-
160-260-031000-
WEST CENTRAL FLORIDA

CITY           SKY/WX    TMP DP  RH WIND       PRES   REMARKS
CRYSTAL RIVER  CLOUDY    73  73 100 CALM      29.97R
INVERNESS      PTSUNNY   72  72 100 CALM      29.98R FOG
BROOKSVILLE    PTCLDY    74  73  97 CALM      29.98R
CLEARWATER     PTCLDY    77  76  96 CALM      29.97R
TAMPA INTL     PTCLDY    81  76  84 CALM      29.97S
TAMPA EXEC     PTCLDY    77  73  88 CALM      29.98R FOG
PLANT CITY     PTCLDY    77  77 100 CALM      29.99S
MACDILL AFB    PTCLDY    77  77 100 SE2       29.97S
PETER O KNIGHT CLEAR     81  79  94 E3        29.97S
ST PETERSBURG  PTCLDY    82  76  81 CALM      29.95S
SARASOTA       PTCLDY    77  75  93 CALM      29.96S
VENICE         FAIR      79  75  89 E3        29.98S

STATION/POSITION SKY/WX   TEMP    WIND        PRES    WAVE   SWELL
                          AIR SEA DIR/SP/G            HT/PER HT/PER
                          (F)     (DEG/KT/KT) (MB)    (FT/S) (FT/S)
CEDAR KEY                  83     300/  4/  6 1014.7S
28.5N   84.5W              84 85  290/  6/  8 1014.7R   1/ 8
27.3N   84.2W                 87                N/A     1/ 7
CLEARWATER BEACH           84 87  280/  5/  7 1014.7F
MIDDLE TAMPA BAY                   20/  3/  4 1015.0S
VENICE                     80 87   80/  3/  4 1014.5S

$$
FLZ066-069-070-075>078-162-262-165-265-031000-
SOUTHWEST FLORIDA AND KEYS

CITY           SKY/WX    TMP DP  RH WIND       PRES   REMARKS
PUNTA GORDA    PTCLDY    78  77  96 NW6       29.98S
FT MYERS       MOCLDY    80  76  87 CALM      29.96S
SOUTHWEST INTL MOCLDY    80  77  90 CALM      29.96S
NAPLES         MOCLDY    80  75  84 CALM      29.96S
MARCO ISLAND   SUNNY     79  72  78 CALM      29.96S
MARATHON       PTCLDY    84  77  79 SE5       29.97R
KEY WEST NAS   CLEAR     83  75  77 SE7       29.97R
KEY WEST INTL  CLEAR     84  76  76 SE7       29.97S

STATION/POSITION SKY/WX   TEMP    WIND        PRES    WAVE   SWELL
                          AIR SEA DIR/SP/G            HT/PER HT/PER
                          (F)     (DEG/KT/KT) (MB)    (FT/S) (FT/S)
VENICE                     80 87   80/  3/  4 1014.5S
NAPLES                        86              1015.6F
26.0N   85.6W              84 86  150/  6/  8 1014.8F   2/ 5   2/ 5
DRY TORTUGAS                                    N/A
NW FL BAY                  86     160/  6/  7 1014.6
SAND KEY                   85      50/  4     1014.7F
LONG KEY                   84 88  140/  6/  7 1015.5R
MOLASSES REEF              84 87   CALM  /  2 1014.8R

$$
FLZ067-068-071>074-168-172>174-031000-
SOUTHEAST FLORIDA

CITY           SKY/WX    TMP DP  RH WIND       PRES   REMARKS
W PALM BEACH   PTCLDY    78  77  96 W3        29.97S
FT LAUDER-EXEC CLEAR     79  76  90 CALM      29.96S
FT LAUDERDALE  CLEAR     80  77  90 CALM      29.95F
POMPANO BEACH  MOCLDY    82  76  81 CALM      29.96S
PEMBROKE PINES CLEAR     80  76  87 CALM      29.97F
OPA LOCKA      CLEAR     80  76  87 W5        29.96F
MIAMI          PTCLDY    81  78  91 NW3       29.96F
WEST KENDALL   CLEAR     77  77 100 CALM      29.97S
HOMESTEAD      CLEAR     78  75  90 CALM      29.96S

STATION/POSITION SKY/WX   TEMP    WIND        PRES    WAVE   SWELL
                          AIR SEA DIR/SP/G            HT/PER HT/PER
                          (F)     (DEG/KT/KT) (MB)    (FT/S) (FT/S)
PORT EVERGLADES            83     310/  3/  4 1014.6F
VIRGINIA KEY               84 87  150/  4/  5 1014.4F
LAKE WORTH                 82 87  240/  4/  5 1014.3F
SETTLEMENT POINT           83     160/  3/  4 1015.2R

$$



USA.gov is the U.S. government's official web portal to all federal, state and local government web resources and services.